Location: ????????
(48.4751°N, 37.6926°E)
Time: 12:24:37
(UTC+00:00)

H-2A R/B - Pass Details

Date: 20 January 2021
Orbit: 577 x 655 km, 98.5° (Epoch: 26 February)

Event Time Altitude Azimuth Distance (km) Brightness Sun altitude
Rises 15:13:58 0° 12° (NNE) 2,981 5.3 -10.6°
Reaches altitude 10° 15:16:13 10° 11° (N) 2,058 4.5 -11.0°
Maximum altitude 15:20:41 74° 288° (WNW) 669 2.3 -11.7°
Drops below altitude 10° 15:25:02 10° 203° (SSW) 2,000 5.2 -12.4°
Sets 15:27:12 0° 202° (SSW) 2,890 6.1 -12.7°
